Wetterdaten: Woche 29.02.16 - 06.03.16 (KW9)
Datum Zeit Temp. I. Temp. A. Feuchte I. Feuchte A. Luftdruck Regen Wind Richtung Sonnenschein UV Solar Taupunkt Windchill Windben
29.02.2016 00:00 22,6 C 2,3 C 46 % 88 % 1015,6 hPa 0,0 l/m 7,3 km/h (2 Bft) N 0,00 h 0,0 UV-I 0 W/m 0,6 C 1,0 C 12,2 km/h (2 Bft)
29.02.2016 01:00 22,6 C 2,3 C 47 % 91 % 1015,2 hPa 0,0 l/m 7,3 km/h (2 Bft) N 0,00 h 0,0 UV-I 0 W/m 0,9 C 0,9 C 11,1 km/h (2 Bft)
29.02.2016 02:00 22,5 C 2,3 C 47 % 92 % 1015,0 hPa 0,0 l/m 5,5 km/h (1 Bft) N 0,00 h 0,0 UV-I 0 W/m 1,1 C 1,6 C 9,6 km/h (2 Bft)
29.02.2016 03:00 22,4 C 2,6 C 48 % 92 % 1014,6 hPa 0,0 l/m 7,4 km/h (2 Bft) N 0,00 h 0,0 UV-I 0 W/m 1,4 C 1,4 C 12,0 km/h (2 Bft)
29.02.2016 04:00 22,5 C 2,7 C 48 % 93 % 1014,3 hPa 0,0 l/m 6,3 km/h (2 Bft) N 0,00 h 0,0 UV-I 0 W/m 1,7 C 1,8 C 10,4 km/h (2 Bft)
29.02.2016 05:00 22,4 C 2,9 C 48 % 93 % 1014,0 hPa 0,0 l/m 7,6 km/h (2 Bft) N 0,00 h 0,0 UV-I 0 W/m 1,9 C 1,4 C 12,4 km/h (3 Bft)
29.02.2016 06:00 22,4 C 2,8 C 49 % 93 % 1013,8 hPa 0,0 l/m 8,3 km/h (2 Bft) N 0,00 h 0,0 UV-I 0 W/m 1,9 C 1,0 C 13,4 km/h (3 Bft)
29.02.2016 07:00 22,4 C 3,0 C 49 % 94 % 1013,8 hPa 0,0 l/m 6,1 km/h (2 Bft) N-NO 0,00 h 0,0 UV-I 8 W/m 2,1 C 2,2 C 11,2 km/h (2 Bft)
29.02.2016 08:00 22,4 C 3,2 C 49 % 93 % 1014,1 hPa 0,0 l/m 6,3 km/h (2 Bft) N-NO 0,00 h 0,0 UV-I 18 W/m 2,2 C 1,7 C 11,3 km/h (2 Bft)
29.02.2016 09:00 22,5 C 3,4 C 48 % 93 % 1013,8 hPa 0,0 l/m 5,8 km/h (2 Bft) N-NO 0,00 h 0,0 UV-I 34 W/m 2,4 C 2,3 C 11,7 km/h (2 Bft)
29.02.2016 10:00 22,6 C 3,4 C 49 % 92 % 1013,7 hPa 0,0 l/m 5,7 km/h (1 Bft) N-NO 0,00 h 0,0 UV-I 30 W/m 2,3 C 2,4 C 11,0 km/h (2 Bft)
29.02.2016 11:00 22,8 C 3,2 C 50 % 93 % 1013,7 hPa 0,0 l/m 3,5 km/h (1 Bft) N 0,00 h 0,0 UV-I 15 W/m 2,2 C 2,7 C 6,7 km/h (2 Bft)
29.02.2016 12:00 22,8 C 2,9 C 50 % 93 % 1013,4 hPa 0,2 l/m 8,1 km/h (2 Bft) N 0,00 h 0,0 UV-I 30 W/m 1,9 C 0,7 C 12,6 km/h (3 Bft)
29.02.2016 13:00 22,9 C 2,5 C 49 % 94 % 1013,0 hPa 0,8 l/m 10,7 km/h (2 Bft) N 0,00 h 0,0 UV-I 43 W/m 1,7 C -1,1 C 16,5 km/h (3 Bft)
29.02.2016 14:00 23,0 C 1,7 C 48 % 95 % 1012,6 hPa 0,8 l/m 10,7 km/h (2 Bft) N 0,00 h 0,5 UV-I 44 W/m 0,9 C -1,9 C 17,0 km/h (3 Bft)
29.02.2016 15:00 23,3 C 1,0 C 48 % 95 % 1012,7 hPa 0,6 l/m 11,8 km/h (2 Bft) N 0,00 h 0,0 UV-I 26 W/m 0,3 C -3,6 C 18,4 km/h (3 Bft)
29.02.2016 16:00 23,6 C 0,7 C 49 % 95 % 1013,0 hPa 1,0 l/m 12,3 km/h (3 Bft) N 0,00 h 0,0 UV-I 20 W/m -0,1 C -4,3 C 19,0 km/h (3 Bft)
29.02.2016 17:00 23,8 C 0,4 C 52 % 95 % 1013,4 hPa 0,8 l/m 12,6 km/h (3 Bft) N 0,00 h 0,0 UV-I 8 W/m -0,3 C -4,8 C 19,9 km/h (4 Bft)
29.02.2016 18:00 23,9 C -0,0 C 51 % 95 % 1014,1 hPa 0,6 l/m 11,7 km/h (2 Bft) N 0,00 h 0,0 UV-I 0 W/m -0,7 C -4,6 C 18,4 km/h (3 Bft)
29.02.2016 19:00 23,8 C -0,4 C 51 % 95 % 1014,9 hPa 0,4 l/m 8,4 km/h (2 Bft) N 0,00 h 0,0 UV-I 0 W/m -1,1 C -2,5 C 14,5 km/h (3 Bft)
29.02.2016 20:00 23,5 C -0,6 C 50 % 95 % 1015,4 hPa 0,6 l/m 7,0 km/h (2 Bft) N 0,00 h 0,0 UV-I 0 W/m -1,3 C -2,0 C 11,9 km/h (2 Bft)
29.02.2016 21:00 23,3 C -0,8 C 50 % 95 % 1015,8 hPa 0,2 l/m 8,8 km/h (2 Bft) N 0,00 h 0,0 UV-I 0 W/m -1,5 C -3,3 C 14,0 km/h (3 Bft)
29.02.2016 22:00 23,3 C -1,0 C 49 % 95 % 1016,2 hPa 0,2 l/m 7,7 km/h (2 Bft) N 0,00 h 0,0 UV-I 0 W/m -1,7 C -2,9 C 12,8 km/h (3 Bft)
29.02.2016 23:00 23,3 C -1,2 C 49 % 95 % 1016,3 hPa 0,0 l/m 4,8 km/h (1 Bft) N 0,00 h 0,0 UV-I 0 W/m -1,9 C -1,7 C 8,4 km/h (2 Bft)
01.03.2016 00:00 23,1 C -1,3 C 49 % 94 % 1016,4 hPa 0,2 l/m 9,0 km/h (2 Bft) N 0,00 h 0,0 UV-I 0 W/m -2,0 C -3,9 C 13,5 km/h (3 Bft)
01.03.2016 01:00 22,9 C -1,4 C 49 % 95 % 1016,6 hPa 0,2 l/m 7,3 km/h (2 Bft) N 0,00 h 0,0 UV-I 0 W/m -2,1 C -3,2 C 12,1 km/h (2 Bft)
01.03.2016 02:00 22,8 C -1,5 C 49 % 94 % 1016,7 hPa 0,0 l/m 6,1 km/h (2 Bft) N 0,00 h 0,0 UV-I 0 W/m -2,3 C -2,2 C 10,8 km/h (2 Bft)
01.03.2016 03:00 22,7 C -1,6 C 49 % 94 % 1016,7 hPa 0,0 l/m 5,1 km/h (1 Bft) N-NW 0,00 h 0,0 UV-I 0 W/m -2,4 C -2,1 C 8,9 km/h (2 Bft)
01.03.2016 04:00 22,7 C -1,7 C 50 % 94 % 1016,9 hPa 0,0 l/m 3,7 km/h (1 Bft) NW 0,00 h 0,0 UV-I 0 W/m -2,5 C -1,8 C 7,5 km/h (2 Bft)
01.03.2016 05:00 22,6 C -1,7 C 50 % 94 % 1017,8 hPa 0,0 l/m 6,1 km/h (2 Bft) NW 0,00 h 0,0 UV-I 0 W/m -2,5 C -2,7 C 9,7 km/h (2 Bft)
01.03.2016 06:00 22,6 C -1,8 C 50 % 94 % 1018,3 hPa 0,2 l/m 3,8 km/h (1 Bft) NW 0,00 h 0,0 UV-I 0 W/m -2,6 C -2,1 C 7,1 km/h (2 Bft)
01.03.2016 07:00 22,6 C -1,7 C 50 % 94 % 1018,8 hPa 0,0 l/m 2,1 km/h (1 Bft) NW 0,00 h 0,0 UV-I 8 W/m -2,6 C -1,8 C 4,1 km/h (1 Bft)
01.03.2016 08:00 22,8 C -1,3 C 51 % 94 % 1019,2 hPa 0,0 l/m 3,4 km/h (1 Bft) NW 0,00 h 0,0 UV-I 12 W/m -2,2 C -1,7 C 5,0 km/h (1 Bft)
01.03.2016 09:00 22,8 C -1,1 C 50 % 92 % 1019,0 hPa 0,2 l/m 5,3 km/h (1 Bft) W-NW 0,02 h 0,6 UV-I 49 W/m -2,2 C -1,7 C 8,6 km/h (2 Bft)
01.03.2016 10:00 22,8 C -0,8 C 49 % 90 % 1019,3 hPa 0,0 l/m 3,9 km/h (1 Bft) W-NW 0,18 h 0,7 UV-I 115 W/m -2,2 C -1,2 C 6,4 km/h (2 Bft)
01.03.2016 11:00 22,7 C -0,8 C 46 % 91 % 1019,6 hPa 0,0 l/m 3,1 km/h (1 Bft) W-NW 0,00 h 0,7 UV-I 81 W/m -2,1 C -1,1 C 5,9 km/h (2 Bft)
01.03.2016 12:00 22,6 C -0,7 C 43 % 91 % 1019,3 hPa 0,0 l/m 3,9 km/h (1 Bft) W-SW 0,00 h 0,7 UV-I 82 W/m -2,0 C -1,5 C 7,1 km/h (2 Bft)
01.03.2016 13:00 22,5 C -0,5 C 43 % 91 % 1018,7 hPa 0,0 l/m 2,3 km/h (1 Bft) W-SW 0,27 h 1,1 UV-I 134 W/m -1,8 C -0,6 C 5,5 km/h (1 Bft)
01.03.2016 14:00 22,6 C -0,0 C 42 % 91 % 1018,3 hPa 0,0 l/m 0,6 km/h (0 Bft) SW 0,40 h 0,9 UV-I 142 W/m -1,4 C -0,0 C 1,8 km/h (1 Bft)
01.03.2016 15:00 22,7 C -0,0 C 43 % 89 % 1018,3 hPa 0,0 l/m 0,0 km/h (0 Bft) N 0,00 h 0,6 UV-I 109 W/m -1,5 C -0,0 C 0,0 km/h (0 Bft)
01.03.2016 16:00 22,7 C -0,1 C 44 % 90 % 1018,1 hPa 0,0 l/m 0,0 km/h (0 Bft) N 0,00 h 0,5 UV-I 82 W/m -1,5 C -0,1 C 0,0 km/h (0 Bft)
01.03.2016 17:00 22,9 C -0,3 C 42 % 89 % 1018,0 hPa 0,0 l/m 0,0 km/h (0 Bft) N 0,00 h 0,0 UV-I 20 W/m -1,9 C -0,3 C 0,0 km/h (0 Bft)
01.03.2016 18:00 22,9 C -0,7 C 42 % 90 % 1017,8 hPa 0,0 l/m 0,0 km/h (0 Bft) N 0,00 h 0,0 UV-I 0 W/m -2,1 C -0,7 C 0,0 km/h (0 Bft)
01.03.2016 19:00 23,0 C -1,2 C 43 % 92 % 1017,6 hPa 0,0 l/m 0,0 km/h (0 Bft) N 0,00 h 0,0 UV-I 0 W/m -2,3 C -1,2 C 0,0 km/h (0 Bft)
01.03.2016 20:00 23,0 C -1,0 C 45 % 94 % 1017,0 hPa 0,0 l/m 0,0 km/h (0 Bft) N 0,00 h 0,0 UV-I 0 W/m -1,9 C -1,0 C 0,0 km/h (0 Bft)
01.03.2016 21:00 23,1 C -0,3 C 45 % 94 % 1016,3 hPa 0,0 l/m 0,0 km/h (0 Bft) N 0,00 h 0,0 UV-I 0 W/m -1,2 C -0,3 C 0,0 km/h (0 Bft)
01.03.2016 22:00 23,1 C -0,4 C 46 % 94 % 1015,7 hPa 0,0 l/m 0,0 km/h (0 Bft) N 0,00 h 0,0 UV-I 0 W/m -1,3 C -0,4 C 0,0 km/h (0 Bft)
01.03.2016 23:00 23,1 C -0,3 C 46 % 94 % 1014,9 hPa 0,0 l/m 0,8 km/h (0 Bft) SW 0,00 h 0,0 UV-I 0 W/m -1,2 C -0,3 C 3,0 km/h (1 Bft)
02.03.2016 00:00 22,8 C -0,2 C 46 % 95 % 1014,1 hPa 0,0 l/m 2,6 km/h (1 Bft) S 0,00 h 0,0 UV-I 0 W/m -0,9 C -0,4 C 6,4 km/h (2 Bft)
02.03.2016 01:00 22,6 C 0,1 C 46 % 95 % 1013,1 hPa 0,0 l/m 5,1 km/h (1 Bft) S 0,00 h 0,0 UV-I 0 W/m -0,6 C -0,5 C 9,9 km/h (2 Bft)
02.03.2016 02:00 22,6 C 0,3 C 46 % 96 % 1012,0 hPa 0,0 l/m 3,9 km/h (1 Bft) S 0,00 h 0,0 UV-I 0 W/m -0,3 C -0,1 C 8,1 km/h (2 Bft)
02.03.2016 03:00 22,4 C 0,4 C 47 % 96 % 1011,0 hPa 0,0 l/m 7,2 km/h (2 Bft) S 0,00 h 0,0 UV-I 0 W/m -0,2 C -1,2 C 12,5 km/h (3 Bft)
02.03.2016 04:00 22,4 C 0,5 C 47 % 96 % 1010,2 hPa 0,0 l/m 3,9 km/h (1 Bft) S 0,00 h 0,0 UV-I 0 W/m -0,1 C -0,0 C 7,7 km/h (2 Bft)
02.03.2016 05:00 22,6 C 0,6 C 48 % 97 % 1009,6 hPa 0,0 l/m 1,5 km/h (1 Bft) S-SW 0,00 h 0,0 UV-I 0 W/m 0,1 C 0,6 C 4,0 km/h (1 Bft)
02.03.2016 06:00 22,8 C 0,8 C 48 % 97 % 1008,9 hPa 0,0 l/m 1,7 km/h (1 Bft) S 0,00 h 0,0 UV-I 0 W/m 0,4 C 0,7 C 4,0 km/h (1 Bft)
02.03.2016 07:00 22,8 C 1,0 C 48 % 97 % 1008,3 hPa 0,0 l/m 5,8 km/h (1 Bft) S 0,00 h 0,0 UV-I 16 W/m 0,5 C -0,2 C 10,7 km/h (2 Bft)
02.03.2016 08:00 23,0 C 1,2 C 48 % 97 % 1007,8 hPa 0,2 l/m 5,8 km/h (2 Bft) S 0,00 h 0,5 UV-I 38 W/m 0,8 C 0,3 C 9,6 km/h (2 Bft)
02.03.2016 09:00 23,2 C 1,8 C 44 % 97 % 1006,9 hPa 0,0 l/m 5,5 km/h (1 Bft) S-SW 0,05 h 0,6 UV-I 87 W/m 1,3 C 1,1 C 9,4 km/h (2 Bft)
02.03.2016 10:00 23,3 C 1,9 C 44 % 96 % 1006,1 hPa 0,0 l/m 1,2 km/h (1 Bft) S 0,00 h 0,5 UV-I 53 W/m 1,3 C 1,9 C 2,6 km/h (1 Bft)
02.03.2016 11:00 23,4 C 2,2 C 43 % 96 % 1005,1 hPa 0,0 l/m 8,6 km/h (2 Bft) S 0,00 h 0,9 UV-I 100 W/m 1,7 C -0,1 C 12,0 km/h (2 Bft)
02.03.2016 12:00 23,3 C 2,6 C 42 % 97 % 1003,8 hPa 0,0 l/m 10,3 km/h (2 Bft) S-SO 0,00 h 0,7 UV-I 82 W/m 2,2 C -0,6 C 15,7 km/h (3 Bft)
02.03.2016 13:00 23,3 C 3,1 C 42 % 96 % 1002,5 hPa 0,0 l/m 7,8 km/h (2 Bft) S-SO 0,00 h 0,6 UV-I 71 W/m 2,5 C 1,4 C 11,3 km/h (2 Bft)
02.03.2016 14:00 23,4 C 3,6 C 42 % 96 % 1001,4 hPa 0,0 l/m 6,2 km/h (2 Bft) S-SO 0,00 h 0,5 UV-I 53 W/m 3,0 C 2,7 C 9,9 km/h (2 Bft)
02.03.2016 15:00 23,3 C 3,9 C 43 % 96 % 1000,2 hPa 0,0 l/m 7,4 km/h (2 Bft) S-SO 0,00 h 0,5 UV-I 47 W/m 3,3 C 2,6 C 11,1 km/h (2 Bft)
02.03.2016 16:00 23,3 C 4,1 C 43 % 96 % 999,6 hPa 1,0 l/m 4,1 km/h (1 Bft) S-SO 0,00 h 0,0 UV-I 16 W/m 3,5 C 3,9 C 6,5 km/h (2 Bft)
02.03.2016 17:00 23,4 C 3,9 C 45 % 95 % 999,9 hPa 1,6 l/m 4,0 km/h (1 Bft) W-NW 0,00 h 0,0 UV-I 7 W/m 3,2 C 3,4 C 6,6 km/h (2 Bft)
02.03.2016 18:00 23,5 C 2,8 C 45 % 95 % 1001,1 hPa 0,6 l/m 7,9 km/h (2 Bft) NW 0,00 h 0,0 UV-I 0 W/m 2,0 C 1,0 C 12,5 km/h (3 Bft)
02.03.2016 19:00 23,5 C 2,1 C 46 % 94 % 1001,2 hPa 0,0 l/m 0,0 km/h (0 Bft) N 0,00 h 0,0 UV-I 0 W/m 1,3 C 2,1 C 0,0 km/h (0 Bft)
02.03.2016 20:00 23,3 C 1,8 C 47 % 95 % 1002,0 hPa 0,0 l/m 0,0 km/h (0 Bft) N 0,00 h 0,0 UV-I 0 W/m 1,1 C 1,8 C 0,0 km/h (0 Bft)
02.03.2016 21:00 23,2 C 1,7 C 48 % 96 % 1002,4 hPa 0,0 l/m 0,0 km/h (0 Bft) SW 0,00 h 0,0 UV-I 0 W/m 1,1 C 1,7 C 0,2 km/h (0 Bft)
02.03.2016 22:00 23,4 C 1,5 C 49 % 95 % 1002,4 hPa 0,0 l/m 0,6 km/h (0 Bft) SW 0,00 h 0,0 UV-I 0 W/m 0,8 C 1,5 C 2,7 km/h (1 Bft)
02.03.2016 23:00 23,3 C 1,4 C 49 % 95 % 1002,6 hPa 0,0 l/m 0,5 km/h (0 Bft) S-SW 0,00 h 0,0 UV-I 0 W/m 0,7 C 1,4 C 2,4 km/h (1 Bft)
03.03.2016 00:00 23,0 C 1,4 C 49 % 96 % 1002,7 hPa 0,0 l/m 0,8 km/h (0 Bft) SW 0,00 h 0,0 UV-I 0 W/m 0,8 C 1,4 C 2,9 km/h (1 Bft)
03.03.2016 01:00 22,8 C 1,4 C 50 % 96 % 1002,6 hPa 0,2 l/m 0,3 km/h (0 Bft) SW 0,00 h 0,0 UV-I 0 W/m 0,8 C 1,4 C 1,1 km/h (0 Bft)
03.03.2016 02:00 22,8 C 1,1 C 50 % 96 % 1002,4 hPa 0,0 l/m 0,7 km/h (0 Bft) S 0,00 h 0,0 UV-I 0 W/m 0,5 C 1,1 C 2,2 km/h (1 Bft)
03.03.2016 03:00 22,4 C 1,0 C 51 % 96 % 1002,3 hPa 0,0 l/m 0,6 km/h (0 Bft) S 0,00 h 0,0 UV-I 0 W/m 0,5 C 1,0 C 1,9 km/h (1 Bft)
03.03.2016 04:00 21,9 C 0,9 C 52 % 96 % 1002,2 hPa 0,0 l/m 1,2 km/h (1 Bft) S 0,00 h 0,0 UV-I 0 W/m 0,3 C 0,9 C 3,2 km/h (1 Bft)
03.03.2016 05:00 21,8 C 0,8 C 52 % 95 % 1002,3 hPa 0,0 l/m 2,3 km/h (1 Bft) SW 0,00 h 0,0 UV-I 0 W/m 0,1 C 0,8 C 5,3 km/h (1 Bft)
03.03.2016 06:00 21,7 C 0,7 C 52 % 94 % 1002,3 hPa 0,0 l/m 2,2 km/h (1 Bft) W-SW 0,00 h 0,0 UV-I 0 W/m -0,1 C 0,7 C 5,3 km/h (1 Bft)
03.03.2016 07:00 21,7 C 0,6 C 52 % 95 % 1002,6 hPa 0,0 l/m 0,9 km/h (0 Bft) W-SW 0,00 h 0,0 UV-I 13 W/m -0,1 C 0,6 C 2,9 km/h (1 Bft)
03.03.2016 08:00 22,5 C 0,7 C 51 % 95 % 1003,1 hPa 0,0 l/m 1,2 km/h (1 Bft) SW 0,00 h 0,0 UV-I 35 W/m -0,1 C 0,7 C 3,1 km/h (1 Bft)
03.03.2016 09:00 22,7 C 0,8 C 48 % 93 % 1003,2 hPa 0,0 l/m 1,1 km/h (1 Bft) S 0,00 h 0,6 UV-I 71 W/m -0,2 C 0,8 C 2,9 km/h (1 Bft)
03.03.2016 10:00 22,6 C 1,2 C 47 % 92 % 1003,3 hPa 0,0 l/m 2,6 km/h (1 Bft) S 0,85 h 1,1 UV-I 182 W/m 0,0 C 1,2 C 4,9 km/h (1 Bft)
03.03.2016 11:00 22,3 C 1,7 C 42 % 88 % 1003,3 hPa 0,0 l/m 3,7 km/h (1 Bft) S 0,53 h 1,2 UV-I 174 W/m -0,1 C 1,6 C 7,0 km/h (2 Bft)
03.03.2016 12:00 22,2 C 1,9 C 42 % 85 % 1003,4 hPa 0,0 l/m 2,2 km/h (1 Bft) SW 0,18 h 1,0 UV-I 128 W/m -0,3 C 1,9 C 4,9 km/h (1 Bft)
03.03.2016 13:00 22,4 C 2,2 C 42 % 84 % 1003,0 hPa 0,0 l/m 2,2 km/h (1 Bft) S 0,78 h 1,4 UV-I 209 W/m -0,2 C 2,2 C 4,7 km/h (1 Bft)
03.03.2016 14:00 22,8 C 3,1 C 43 % 78 % 1002,9 hPa 0,0 l/m 1,0 km/h (0 Bft) S 0,57 h 1,3 UV-I 235 W/m -0,4 C 3,1 C 2,3 km/h (1 Bft)
03.03.2016 15:00 23,0 C 2,9 C 43 % 77 % 1002,8 hPa 0,0 l/m 0,3 km/h (0 Bft) S 0,02 h 0,6 UV-I 108 W/m -0,8 C 2,9 C 0,9 km/h (0 Bft)
03.03.2016 16:00 23,2 C 2,9 C 45 % 76 % 1002,9 hPa 0,0 l/m 0,2 km/h (0 Bft) SW 0,00 h 0,5 UV-I 86 W/m -0,9 C 2,9 C 0,7 km/h (0 Bft)
03.03.2016 17:00 23,2 C 3,0 C 44 % 76 % 1003,4 hPa 0,0 l/m 0,0 km/h (0 Bft) N 0,00 h 0,0 UV-I 31 W/m -0,9 C 3,0 C 0,0 km/h (0 Bft)
03.03.2016 18:00 23,2 C 2,3 C 44 % 82 % 1004,3 hPa 0,0 l/m 0,0 km/h (0 Bft) N 0,00 h 0,0 UV-I 0 W/m -0,5 C 2,3 C 0,0 km/h (0 Bft)
03.03.2016 19:00 23,1 C 1,4 C 45 % 87 % 1005,0 hPa 0,0 l/m 0,0 km/h (0 Bft) N 0,00 h 0,0 UV-I 0 W/m -0,5 C 1,4 C 0,0 km/h (0 Bft)
03.03.2016 20:00 23,1 C 0,5 C 45 % 89 % 1005,4 hPa 0,0 l/m 0,0 km/h (0 Bft) N 0,00 h 0,0 UV-I 0 W/m -1,2 C 0,5 C 0,0 km/h (0 Bft)
03.03.2016 21:00 23,0 C -0,7 C 45 % 90 % 1006,0 hPa 0,0 l/m 0,0 km/h (0 Bft) N 0,00 h 0,0 UV-I 0 W/m -2,0 C -0,7 C 0,0 km/h (0 Bft)
03.03.2016 22:00 23,0 C -1,4 C 44 % 92 % 1006,5 hPa 0,0 l/m 0,0 km/h (0 Bft) N 0,00 h 0,0 UV-I 0 W/m -2,6 C -1,4 C 0,0 km/h (0 Bft)
03.03.2016 23:00 22,9 C -1,9 C 44 % 92 % 1006,9 hPa 0,0 l/m 0,0 km/h (0 Bft) N 0,00 h 0,0 UV-I 0 W/m -3,0 C -1,9 C 0,0 km/h (0 Bft)
04.03.2016 00:00 22,6 C -2,3 C 45 % 93 % 1007,3 hPa 0,0 l/m 0,0 km/h (0 Bft) N 0,00 h 0,0 UV-I 0 W/m -3,3 C -2,3 C 0,0 km/h (0 Bft)
04.03.2016 01:00 22,4 C -2,8 C 45 % 93 % 1007,8 hPa 0,0 l/m 0,0 km/h (0 Bft) N 0,00 h 0,0 UV-I 0 W/m -3,8 C -2,8 C 0,0 km/h (0 Bft)
04.03.2016 02:00 22,4 C -3,2 C 45 % 93 % 1007,9 hPa 0,0 l/m 0,0 km/h (0 Bft) N 0,00 h 0,0 UV-I 0 W/m -4,1 C -3,2 C 0,0 km/h (0 Bft)
04.03.2016 03:00 22,3 C -3,3 C 45 % 94 % 1007,8 hPa 0,0 l/m 0,0 km/h (0 Bft) N 0,00 h 0,0 UV-I 0 W/m -4,2 C -3,3 C 0,0 km/h (0 Bft)
04.03.2016 04:00 22,3 C -3,1 C 45 % 95 % 1007,5 hPa 0,0 l/m 0,0 km/h (0 Bft) N 0,00 h 0,0 UV-I 0 W/m -3,9 C -3,1 C 0,0 km/h (0 Bft)
04.03.2016 05:00 22,3 C -2,5 C 46 % 95 % 1007,7 hPa 0,0 l/m 0,0 km/h (0 Bft) N 0,00 h 0,0 UV-I 0 W/m -3,2 C -2,5 C 0,0 km/h (0 Bft)
04.03.2016 06:00 22,2 C -1,6 C 46 % 96 % 1007,8 hPa 0,0 l/m 0,0 km/h (0 Bft) N 0,00 h 0,0 UV-I 0 W/m -2,2 C -1,6 C 0,0 km/h (0 Bft)
04.03.2016 07:00 22,2 C -0,5 C 46 % 96 % 1008,0 hPa 0,0 l/m 0,2 km/h (0 Bft) S 0,00 h 0,0 UV-I 14 W/m -1,1 C -0,5 C 0,6 km/h (0 Bft)
04.03.2016 08:00 22,2 C 0,2 C 46 % 96 % 1007,9 hPa 0,0 l/m 0,7 km/h (0 Bft) S 0,00 h 0,5 UV-I 48 W/m -0,4 C 0,2 C 1,9 km/h (1 Bft)
04.03.2016 09:00 22,3 C 1,1 C 45 % 95 % 1007,1 hPa 0,0 l/m 3,7 km/h (1 Bft) S-SO 0,72 h 1,0 UV-I 196 W/m 0,4 C 0,8 C 6,6 km/h (2 Bft)
04.03.2016 10:00 22,2 C 3,1 C 44 % 83 % 1006,6 hPa 0,0 l/m 6,5 km/h (2 Bft) S 0,98 h 1,7 UV-I 395 W/m 0,5 C 2,3 C 10,0 km/h (2 Bft)
04.03.2016 11:00 21,9 C 3,5 C 39 % 77 % 1006,1 hPa 0,0 l/m 7,7 km/h (2 Bft) S-SO 0,82 h 1,8 UV-I 259 W/m -0,1 C 2,2 C 12,9 km/h (3 Bft)
04.03.2016 12:00 21,7 C 3,9 C 36 % 73 % 1005,1 hPa 0,0 l/m 9,8 km/h (2 Bft) S-SO 1,00 h 1,9 UV-I 362 W/m -0,5 C 0,9 C 15,9 km/h (3 Bft)
04.03.2016 13:00 22,1 C 4,0 C 38 % 72 % 1003,7 hPa 0,0 l/m 12,5 km/h (3 Bft) SO 1,00 h 1,6 UV-I 252 W/m -0,6 C -0,5 C 19,5 km/h (3 Bft)
04.03.2016 14:00 22,3 C 4,4 C 39 % 71 % 1003,0 hPa 0,0 l/m 11,9 km/h (2 Bft) S-SO 0,97 h 1,4 UV-I 293 W/m -0,4 C 0,3 C 17,8 km/h (3 Bft)
04.03.2016 15:00 22,4 C 4,7 C 39 % 70 % 1002,4 hPa 0,0 l/m 10,9 km/h (2 Bft) SO 0,83 h 0,9 UV-I 208 W/m -0,3 C 1,2 C 17,6 km/h (3 Bft)
04.03.2016 16:00 22,5 C 4,4 C 39 % 73 % 1001,8 hPa 0,0 l/m 8,5 km/h (2 Bft) SO 0,00 h 0,6 UV-I 93 W/m 0,0 C 2,4 C 12,3 km/h (3 Bft)
04.03.2016 17:00 22,5 C 3,6 C 39 % 76 % 1001,1 hPa 0,0 l/m 4,9 km/h (1 Bft) SO 0,00 h 0,0 UV-I 21 W/m -0,2 C 3,1 C 9,4 km/h (2 Bft)
04.03.2016 18:00 23,0 C 3,1 C 40 % 77 % 1000,9 hPa 0,0 l/m 4,6 km/h (1 Bft) SO 0,00 h 0,0 UV-I 0 W/m -0,6 C 2,8 C 8,3 km/h (2 Bft)
04.03.2016 19:00 23,2 C 3,0 C 41 % 76 % 1000,9 hPa 0,0 l/m 1,6 km/h (1 Bft) SO 0,00 h 0,0 UV-I 0 W/m -0,7 C 3,0 C 3,8 km/h (1 Bft)
04.03.2016 20:00 23,0 C 2,9 C 41 % 76 % 1000,6 hPa 0,0 l/m 0,1 km/h (0 Bft) O 0,00 h 0,0 UV-I 0 W/m -0,8 C 2,9 C 0,4 km/h (0 Bft)
04.03.2016 21:00 23,0 C 2,6 C 41 % 77 % 999,9 hPa 0,0 l/m 0,1 km/h (0 Bft) O 0,00 h 0,0 UV-I 0 W/m -1,0 C 2,6 C 0,3 km/h (0 Bft)
04.03.2016 22:00 23,1 C 2,5 C 42 % 77 % 999,7 hPa 0,0 l/m 0,0 km/h (0 Bft) O-SO 0,00 h 0,0 UV-I 0 W/m -1,2 C 2,5 C 0,3 km/h (0 Bft)
04.03.2016 23:00 22,7 C 1,5 C 41 % 81 % 999,5 hPa 0,0 l/m 0,0 km/h (0 Bft) N 0,00 h 0,0 UV-I 0 W/m -1,4 C 1,5 C 0,0 km/h (0 Bft)
05.03.2016 00:00 22,4 C 0,6 C 42 % 86 % 999,2 hPa 0,0 l/m 0,0 km/h (0 Bft) N 0,00 h 0,0 UV-I 0 W/m -1,6 C 0,6 C 0,2 km/h (0 Bft)
05.03.2016 01:00 22,3 C 0,5 C 42 % 87 % 998,8 hPa 0,0 l/m 0,1 km/h (0 Bft) O-NO 0,00 h 0,0 UV-I 0 W/m -1,4 C 0,5 C 0,7 km/h (0 Bft)
05.03.2016 02:00 22,2 C 1,0 C 43 % 85 % 998,1 hPa 0,0 l/m 0,5 km/h (0 Bft) O-NO 0,00 h 0,0 UV-I 0 W/m -1,2 C 1,0 C 2,3 km/h (1 Bft)
05.03.2016 03:00 22,2 C 1,3 C 43 % 83 % 997,5 hPa 0,0 l/m 1,4 km/h (1 Bft) O-NO 0,00 h 0,0 UV-I 0 W/m -1,2 C 1,3 C 4,5 km/h (1 Bft)
05.03.2016 04:00 22,4 C 1,3 C 44 % 83 % 997,2 hPa 0,0 l/m 1,1 km/h (1 Bft) O-NO 0,00 h 0,0 UV-I 0 W/m -1,2 C 1,3 C 4,3 km/h (1 Bft)
05.03.2016 05:00 22,5 C 1,1 C 44 % 85 % 996,7 hPa 0,0 l/m 3,4 km/h (1 Bft) O-NO 0,00 h 0,0 UV-I 0 W/m -1,2 C 1,0 C 7,3 km/h (2 Bft)
05.03.2016 06:00 22,6 C 1,3 C 45 % 84 % 996,3 hPa 0,0 l/m 4,8 km/h (1 Bft) O-NO 0,00 h 0,0 UV-I 7 W/m -1,1 C 0,7 C 9,7 km/h (2 Bft)
05.03.2016 07:00 22,9 C 1,4 C 45 % 85 % 996,7 hPa 0,0 l/m 0,2 km/h (0 Bft) NO 0,00 h 0,0 UV-I 38 W/m -0,9 C 1,4 C 0,7 km/h (0 Bft)
05.03.2016 08:00 23,3 C 2,4 C 44 % 83 % 996,5 hPa 0,0 l/m 0,0 km/h (0 Bft) N 0,40 h 0,6 UV-I 140 W/m -0,2 C 2,4 C 0,1 km/h (0 Bft)
05.03.2016 09:00 23,0 C 3,5 C 42 % 77 % 996,5 hPa 0,0 l/m 0,4 km/h (0 Bft) SO 0,78 h 1,0 UV-I 216 W/m -0,1 C 3,4 C 1,1 km/h (1 Bft)
05.03.2016 10:00 23,0 C 4,6 C 40 % 75 % 996,6 hPa 0,0 l/m 2,3 km/h (1 Bft) SO 1,00 h 1,5 UV-I 293 W/m 0,6 C 4,2 C 5,2 km/h (1 Bft)
05.03.2016 11:00 22,9 C 5,4 C 40 % 73 % 996,3 hPa 0,0 l/m 0,3 km/h (0 Bft) O 1,00 h 1,7 UV-I 290 W/m 1,1 C 5,4 C 1,3 km/h (1 Bft)
05.03.2016 12:00 23,0 C 6,4 C 40 % 70 % 996,3 hPa 0,0 l/m 0,0 km/h (0 Bft) SO 0,55 h 1,2 UV-I 184 W/m 1,3 C 6,4 C 0,1 km/h (0 Bft)
05.03.2016 13:00 22,9 C 6,5 C 40 % 71 % 995,7 hPa 0,0 l/m 0,3 km/h (0 Bft) O-NO 0,78 h 1,2 UV-I 203 W/m 1,6 C 6,5 C 1,6 km/h (1 Bft)
05.03.2016 14:00 23,2 C 6,6 C 41 % 71 % 995,7 hPa 0,0 l/m 0,2 km/h (0 Bft) SO 0,70 h 1,0 UV-I 183 W/m 1,7 C 6,6 C 1,3 km/h (1 Bft)
05.03.2016 15:00 23,1 C 6,0 C 41 % 75 % 995,7 hPa 0,0 l/m 0,5 km/h (0 Bft) SO 0,00 h 0,5 UV-I 83 W/m 1,9 C 6,0 C 1,5 km/h (1 Bft)
05.03.2016 16:00 22,9 C 5,7 C 41 % 78 % 995,6 hPa 0,0 l/m 0,0 km/h (0 Bft) N 0,00 h 0,5 UV-I 107 W/m 2,2 C 5,7 C 0,0 km/h (0 Bft)
05.03.2016 17:00 23,2 C 5,3 C 44 % 78 % 995,6 hPa 0,0 l/m 0,0 km/h (0 Bft) N 0,00 h 0,5 UV-I 107 W/m 1,8 C 5,3 C 0,0 km/h (0 Bft)
05.03.2016 18:00 23,3 C 4,7 C 44 % 82 % 996,1 hPa 0,0 l/m 0,0 km/h (0 Bft) N 0,00 h 0,5 UV-I 107 W/m 1,9 C 4,7 C 0,0 km/h (0 Bft)
05.03.2016 19:00 23,1 C 4,2 C 44 % 84 % 996,3 hPa 0,0 l/m 0,0 km/h (0 Bft) N 0,00 h 0,0 UV-I 0 W/m 1,7 C 4,2 C 0,0 km/h (0 Bft)
05.03.2016 20:00 23,1 C 3,7 C 44 % 85 % 996,2 hPa 0,0 l/m 0,0 km/h (0 Bft) N 0,00 h 0,0 UV-I 0 W/m 1,5 C 3,7 C 0,0 km/h (0 Bft)
05.03.2016 21:00 22,9 C 3,1 C 44 % 87 % 996,3 hPa 0,0 l/m 0,0 km/h (0 Bft) N 0,00 h 0,0 UV-I 0 W/m 1,2 C 3,1 C 0,0 km/h (0 Bft)
05.03.2016 22:00 23,1 C 2,8 C 44 % 89 % 996,4 hPa 0,0 l/m 0,0 km/h (0 Bft) N 0,00 h 0,0 UV-I 0 W/m 1,2 C 2,8 C 0,0 km/h (0 Bft)
05.03.2016 23:00 22,9 C 2,5 C 44 % 91 % 996,1 hPa 0,0 l/m 0,0 km/h (0 Bft) N 0,00 h 0,0 UV-I 0 W/m 1,2 C 2,5 C 0,0 km/h (0 Bft)
06.03.2016 00:00 22,6 C 2,3 C 45 % 93 % 995,9 hPa 0,0 l/m 0,0 km/h (0 Bft) N 0,00 h 0,0 UV-I 0 W/m 1,3 C 2,3 C 0,0 km/h (0 Bft)
06.03.2016 01:00 22,4 C 2,3 C 45 % 94 % 995,9 hPa 0,2 l/m 0,0 km/h (0 Bft) N 0,00 h 0,0 UV-I 0 W/m 1,4 C 2,3 C 0,0 km/h (0 Bft)
06.03.2016 02:00 22,4 C 1,9 C 46 % 94 % 996,1 hPa 1,0 l/m 0,0 km/h (0 Bft) N 0,00 h 0,0 UV-I 0 W/m 1,0 C 1,9 C 0,0 km/h (0 Bft)
06.03.2016 03:00 22,3 C 1,2 C 46 % 94 % 996,5 hPa 1,2 l/m 0,0 km/h (0 Bft) N 0,00 h 0,0 UV-I 0 W/m 0,4 C 1,2 C 0,0 km/h (0 Bft)
06.03.2016 04:00 22,3 C 0,8 C 46 % 95 % 997,0 hPa 0,6 l/m 0,0 km/h (0 Bft) N 0,00 h 0,0 UV-I 0 W/m 0,1 C 0,8 C 0,0 km/h (0 Bft)
06.03.2016 05:00 22,3 C 0,8 C 46 % 96 % 997,4 hPa 0,6 l/m 0,2 km/h (0 Bft) W-SW 0,00 h 0,0 UV-I 0 W/m 0,2 C 0,8 C 1,4 km/h (1 Bft)
06.03.2016 06:00 22,3 C 0,9 C 46 % 96 % 997,7 hPa 0,2 l/m 0,2 km/h (0 Bft) SW 0,00 h 0,0 UV-I 0 W/m 0,3 C 0,9 C 1,0 km/h (0 Bft)
06.03.2016 07:00 22,8 C 1,0 C 48 % 96 % 998,2 hPa 0,0 l/m 1,5 km/h (1 Bft) SW 0,00 h 0,0 UV-I 18 W/m 0,4 C 1,0 C 3,2 km/h (1 Bft)
06.03.2016 08:00 23,0 C 1,5 C 47 % 97 % 998,7 hPa 0,0 l/m 1,5 km/h (1 Bft) SW 0,18 h 0,6 UV-I 105 W/m 1,0 C 1,5 C 4,0 km/h (1 Bft)
06.03.2016 09:00 23,1 C 2,2 C 46 % 95 % 999,3 hPa 0,0 l/m 1,4 km/h (1 Bft) S 0,32 h 0,7 UV-I 146 W/m 1,5 C 2,2 C 2,6 km/h (1 Bft)
06.03.2016 10:00 23,2 C 3,5 C 46 % 90 % 999,7 hPa 0,0 l/m 3,6 km/h (1 Bft) W-SW 0,73 h 1,1 UV-I 221 W/m 2,0 C 3,5 C 8,0 km/h (2 Bft)
06.03.2016 11:00 22,8 C 3,8 C 44 % 85 % 1000,1 hPa 0,0 l/m 4,2 km/h (1 Bft) W 0,47 h 1,1 UV-I 174 W/m 1,6 C 3,6 C 8,4 km/h (2 Bft)
06.03.2016 12:00 22,6 C 3,6 C 43 % 85 % 1000,3 hPa 0,0 l/m 3,5 km/h (1 Bft) W-SW 0,62 h 1,1 UV-I 159 W/m 1,3 C 3,6 C 7,7 km/h (2 Bft)
06.03.2016 13:00 22,5 C 2,7 C 42 % 89 % 1000,4 hPa 0,2 l/m 7,9 km/h (2 Bft) W-SW 0,47 h 1,0 UV-I 150 W/m 1,1 C 0,5 C 14,0 km/h (3 Bft)
06.03.2016 14:00 22,3 C 3,1 C 40 % 84 % 1000,8 hPa 0,0 l/m 10,1 km/h (2 Bft) W-SW 0,50 h 1,0 UV-I 197 W/m 0,6 C -0,1 C 17,4 km/h (3 Bft)
06.03.2016 15:00 22,4 C 3,1 C 40 % 83 % 1001,2 hPa 0,0 l/m 1,9 km/h (1 Bft) S-SW 0,00 h 0,6 UV-I 60 W/m 0,5 C 3,0 C 5,5 km/h (1 Bft)
06.03.2016 16:00 22,8 C 2,7 C 40 % 87 % 1001,5 hPa 0,0 l/m 1,2 km/h (1 Bft) W-SW 0,00 h 0,5 UV-I 75 W/m 0,8 C 2,7 C 3,7 km/h (1 Bft)
06.03.2016 17:00 23,1 C 2,3 C 41 % 88 % 1001,5 hPa 0,0 l/m 0,5 km/h (0 Bft) S 0,00 h 0,0 UV-I 18 W/m 0,5 C 2,3 C 1,8 km/h (1 Bft)
06.03.2016 18:00 23,2 C 1,5 C 40 % 92 % 1001,9 hPa 0,4 l/m 0,4 km/h (0 Bft) S 0,00 h 0,0 UV-I 0 W/m 0,3 C 1,5 C 1,4 km/h (1 Bft)
06.03.2016 19:00 23,4 C 1,2 C 42 % 94 % 1002,3 hPa 0,2 l/m 2,7 km/h (1 Bft) S 0,00 h 0,0 UV-I 0 W/m 0,3 C 1,2 C 6,7 km/h (2 Bft)
06.03.2016 20:00 23,2 C 1,0 C 41 % 94 % 1002,7 hPa 0,0 l/m 2,5 km/h (1 Bft) S 0,00 h 0,0 UV-I 0 W/m 0,1 C 0,9 C 6,4 km/h (2 Bft)
06.03.2016 21:00 23,1 C 0,9 C 42 % 94 % 1003,0 hPa 0,2 l/m 3,8 km/h (1 Bft) S 0,00 h 0,0 UV-I 0 W/m 0,1 C 0,9 C 8,4 km/h (2 Bft)
06.03.2016 22:00 23,2 C 0,9 C 42 % 94 % 1003,1 hPa 0,0 l/m 4,1 km/h (1 Bft) S 0,00 h 0,0 UV-I 0 W/m 0,0 C 0,7 C 8,6 km/h (2 Bft)
06.03.2016 23:00 22,7 C 0,9 C 42 % 92 % 1003,2 hPa 0,0 l/m 7,0 km/h (2 Bft) S 0,00 h 0,0 UV-I 0 W/m -0,2 C -0,3 C 12,0 km/h (2 Bft)
Min-Datum _ 04.03.16 04.03.16 04.03.16 05.03.16 05.03.16 - 29.02.16 - - - - 04.03.16 29.02.16 29.02.16
_ Min-Zeit 12:31 02:57 12:12 12:44 14:23 - 00:43 - - - - 02:26 18:32 01:00
Minimum _ 21,6 C -3,4 C 35 % 68 % 995,4 hPa - 0,0 km/h (0 Bft) - - - - -4,3 C -10,0 C 0,0 km/h (0 Bft)
Max-Datum _ 29.02.16 05.03.16 03.03.16 02.03.16 01.03.16 02.03.16 29.02.16 - 04.03.16 04.03.16 04.03.16 02.03.16 05.03.16 29.02.16
_ Max-Zeit 18:04 14:13 07:51 05:24 11:10 17:04 18:32 - 10:22 12:05 12:05 16:31 14:13 14:56
Maximum _ 24,1 C 6,9 C 53 % 97 % 1019,8 hPa 1,6 l/m 20,9 km/h
N (4 Bft)
- 0,03 h 2,7 UV-I 752 W/m 3,6 C 6,9 C 32,2 km/h
N (5 Bft)
Durchschnitt _ 22,8 C 1,5 C 45 % 90 % 1006,0 hPa #15,4 l/m 3,2 km/h (1 Bft) N #18:40 h 0,9 UV-I 106 W/m -0,1 C 0,8 C 5,8 km/h (1 Bft)